• In Hungary
  • List of Countries
  • For 7 days
  • Water Temperature
  • Satellite Maps
  • Weather Map
  • News
  • Weather Widgets
  • user-avatar
    Login

    Hourly Weather Braciszow

    Today, 23 October, Tuesday

    Time Temperature Precipitation Wind Pressure Humidity
    00:00 +5°C° 0 mm 3 mps 734 mmHg 85%
    01:00 +5°C° 0 mm 2 mps 734 mmHg 90%
    02:00 +4°C° 0 mm 2 mps 734 mmHg 91%
    03:00 +4°C° 0 mm 2 mps 733 mmHg 91%
    04:00 +4°C° 0 mm 1 mps 733 mmHg 91%
    05:00 +3°C° 0 mm 2 mps 732 mmHg 90%
    06:00 +3°C° 0 mm 2 mps 732 mmHg 89%
    07:00 +3°C° 0 mm 3 mps 731 mmHg 88%
    08:00 +4°C° 0 mm 4 mps 731 mmHg 80%
    09:00 +6°C° 0 mm 5 mps 730 mmHg 72%
    10:00 +7°C° 0 mm 6 mps 729 mmHg 64%
    11:00 +6°C° 0.1 mm 7 mps 728 mmHg 63%
    12:00 +8°C° 0.1 mm 7 mps 727 mmHg 62%
    13:00 +7°C° 0.1 mm 8 mps 726 mmHg 61%
    14:00 +7°C° 0.7 mm 8 mps 725 mmHg 65%
    15:00 +6°C° 0.7 mm 8 mps 724 mmHg 70%
    16:00 +6°C° 0.7 mm 9 mps 723 mmHg 74%
    17:00 +6°C° 0.4 mm 9 mps 723 mmHg 75%
    18:00 +7°C° 0.4 mm 9 mps 722 mmHg 76%
    19:00 +7°C° 0.4 mm 9 mps 721 mmHg 76%
    20:00 +8°C° 0.6 mm 9 mps 721 mmHg 78%
    21:00 +8°C° 0.6 mm 9 mps 720 mmHg 79%
    22:00 +8°C° 0.6 mm 9 mps 720 mmHg 80%
    23:00 +8°C° 1.1 mm 9 mps 719 mmHg 81%

    Tomorrow, 24 October, Wednesday

    Time Temperature Precipitation Wind Pressure Humidity
    00:00 +10°C° 1.1 mm 9 mps 718 mmHg 81%
    01:00 +10°C° 1.1 mm 9 mps 718 mmHg 82%
    02:00 +8°C° 1.6 mm 9 mps 718 mmHg 81%
    03:00 +8°C° 1.6 mm 9 mps 718 mmHg 80%
    04:00 +7°C° 1.6 mm 9 mps 717 mmHg 79%
    05:00 +6°C° 0.3 mm 9 mps 718 mmHg 77%
    06:00 +5°C° 0.3 mm 9 mps 718 mmHg 75%
    07:00 +5°C° 0.3 mm 9 mps 719 mmHg 73%
    08:00 +5°C° 0.1 mm 9 mps 720 mmHg 69%
    09:00 +5°C° 0.1 mm 10 mps 720 mmHg 64%
    10:00 +5°C° 0.1 mm 10 mps 721 mmHg 59%
    11:00 +5°C° 0.1 mm 10 mps 721 mmHg 57%
    12:00 +5°C° 0.1 mm 10 mps 722 mmHg 56%
    13:00 +5°C° 0.1 mm 10 mps 722 mmHg 54%
    14:00 +5°C° 0 mm 9 mps 723 mmHg 55%
    15:00 +5°C° 0 mm 8 mps 723 mmHg 55%
    16:00 +4°C° 0 mm 7 mps 724 mmHg 56%
    17:00 +4°C° 0 mm 7 mps 724 mmHg 59%
    18:00 +3°C° 0 mm 6 mps 725 mmHg 62%
    19:00 +3°C° 0 mm 6 mps 726 mmHg 65%
    20:00 +2°C° 0 mm 6 mps 726 mmHg 66%
    21:00 +2°C° 0 mm 5 mps 726 mmHg 68%
    22:00 +2°C° 0 mm 5 mps 727 mmHg 70%
    23:00 +1°C° 0 mm 4 mps 727 mmHg 73%

    Day after tomorrow, 25 October, Thursday

    Time Temperature Precipitation Wind Pressure Humidity
    00:00 +1°C° 0 mm 4 mps 727 mmHg 75%
    01:00 +2°C° 0 mm 3 mps 727 mmHg 78%
    02:00 +2°C° 0 mm 3 mps 726 mmHg 79%
    03:00 +2°C° 0 mm 3 mps 726 mmHg 81%
    04:00 +2°C° 0 mm 3 mps 726 mmHg 82%
    05:00 +3°C° 0.4 mm 3 mps 725 mmHg 83%
    06:00 +4°C° 0.4 mm 4 mps 725 mmHg 85%
    07:00 +5°C° 0.4 mm 4 mps 724 mmHg 86%
    08:00 +6°C° 0.3 mm 5 mps 724 mmHg 83%
    09:00 +8°C° 0.3 mm 6 mps 724 mmHg 81%
    10:00 +10°C° 0.3 mm 7 mps 723 mmHg 78%
    11:00 +10°C° 0.1 mm 7 mps 723 mmHg 77%
    12:00 +10°C° 0.1 mm 8 mps 723 mmHg 75%
    13:00 +11°C° 0.1 mm 8 mps 723 mmHg 73%
    14:00 +10°C° 0.1 mm 7 mps 723 mmHg 74%
    15:00 +10°C° 0.1 mm 7 mps 723 mmHg 75%
    16:00 +10°C° 0.1 mm 6 mps 723 mmHg 76%
    17:00 +9°C° 0.1 mm 6 mps 723 mmHg 77%
    18:00 +9°C° 0.1 mm 5 mps 723 mmHg 79%
    19:00 +9°C° 0.1 mm 5 mps 723 mmHg 81%
    20:00 +9°C° 0.2 mm 5 mps 723 mmHg 82%
    21:00 +8°C° 0.2 mm 5 mps 724 mmHg 84%
    22:00 +8°C° 0.2 mm 5 mps 724 mmHg 85%
    23:00 +8°C° 0.2 mm 4 mps 724 mmHg 86%

    26 October, Friday

    Time Temperature Precipitation Wind Pressure Humidity
    00:00 +8°C° 0.2 mm 4 mps 724 mmHg 87%
    01:00 +8°C° 0.2 mm 3 mps 724 mmHg 87%
    02:00 +8°C° 0.1 mm 3 mps 724 mmHg 87%
    03:00 +8°C° 0.1 mm 3 mps 724 mmHg 87%
    04:00 +8°C° 0.1 mm 2 mps 724 mmHg 87%
    05:00 +8°C° 0 mm 2 mps 724 mmHg 88%
    06:00 +8°C° 0 mm 2 mps 724 mmHg 88%
    07:00 +7°C° 0 mm 2 mps 724 mmHg 88%
    08:00 +8°C° 0 mm 2 mps 724 mmHg 84%
    09:00 +9°C° 0 mm 3 mps 724 mmHg 79%
    10:00 +10°C° 0 mm 3 mps 724 mmHg 74%
    11:00 +11°C° 0 mm 3 mps 724 mmHg 70%
    12:00 +12°C° 0 mm 3 mps 724 mmHg 67%
    13:00 +12°C° 0 mm 3 mps 723 mmHg 64%
    14:00 +12°C° 0 mm 3 mps 723 mmHg 66%
    15:00 +11°C° 0 mm 3 mps 722 mmHg 69%
    16:00 +11°C° 0 mm 3 mps 722 mmHg 71%
    17:00 +10°C° 0 mm 3 mps 722 mmHg 73%
    18:00 +10°C° 0 mm 4 mps 721 mmHg 76%
    19:00 +8°C° 0 mm 4 mps 721 mmHg 78%
    20:00 +8°C° 0 mm 4 mps 721 mmHg 81%
    21:00 +7°C° 0 mm 4 mps 721 mmHg 84%
    22:00 +7°C° 0 mm 4 mps 721 mmHg 86%
    23:00 +8°C° 0 mm 3 mps 721 mmHg 87%

    27 October, Saturday

    Time Temperature Precipitation Wind Pressure Humidity
    00:00 +8°C° 0 mm 3 mps 721 mmHg 87%
    01:00 +7°C° 0 mm 3 mps 721 mmHg 88%
    02:00 +7°C° 0 mm 3 mps 720 mmHg 87%
    03:00 +7°C° 0 mm 3 mps 720 mmHg 86%
    04:00 +7°C° 0 mm 3 mps 720 mmHg 86%
    05:00 +7°C° 0 mm 3 mps 720 mmHg 86%
    06:00 +7°C° 0 mm 3 mps 720 mmHg 86%
    07:00 +7°C° 0 mm 3 mps 720 mmHg 85%
    08:00 +7°C° 0.1 mm 3 mps 720 mmHg 82%
    09:00 +8°C° 0.1 mm 3 mps 721 mmHg 78%
    10:00 +9°C° 0.1 mm 3 mps 721 mmHg 74%
    11:00 +9°C° 0.1 mm 3 mps 721 mmHg 72%
    12:00 +9°C° 0.1 mm 3 mps 721 mmHg 71%
    13:00 +9°C° 0.1 mm 2 mps 721 mmHg 69%
    14:00 +9°C° 0.1 mm 2 mps 721 mmHg 71%
    15:00 +9°C° 0.1 mm 1 mps 721 mmHg 74%
    16:00 +9°C° 0.1 mm 1 mps 721 mmHg 77%
    17:00 +8°C° 0.2 mm 1 mps 721 mmHg 78%
    18:00 +8°C° 0.2 mm 1 mps 721 mmHg 79%
    19:00 +8°C° 0.2 mm 1 mps 721 mmHg 80%
    20:00 +6°C° 0.2 mm 2 mps 721 mmHg 79%
    21:00 +6°C° 0.2 mm 2 mps 721 mmHg 79%
    22:00 +6°C° 0.2 mm 2 mps 721 mmHg 78%
    23:00 +5°C° 0.1 mm 3 mps 721 mmHg 78%

    28 October, Sunday

    Time Temperature Precipitation Wind Pressure Humidity
    00:00 +4°C° 0.1 mm 3 mps 721 mmHg 79%
    01:00 +4°C° 0.1 mm 3 mps 721 mmHg 79%
    02:00 +4°C° 0.3 mm 3 mps 720 mmHg 80%
    03:00 +4°C° 0.3 mm 4 mps 720 mmHg 81%
    04:00 +4°C° 0.3 mm 4 mps 720 mmHg 82%
    05:00 +2°C° 0.7 mm 5 mps 720 mmHg 82%
    06:00 +2°C° 0.7 mm 5 mps 719 mmHg 82%
    07:00 +2°C° 0.7 mm 5 mps 719 mmHg 83%
    08:00 +2°C° 0.8 mm 5 mps 719 mmHg 83%
    09:00 +2°C° 0.8 mm 6 mps 719 mmHg 83%
    10:00 +2°C° 0.8 mm 6 mps 719 mmHg 83%
    11:00 +2°C° 1.5 mm 6 mps 719 mmHg 85%
    12:00 +2°C° 1.5 mm 6 mps 719 mmHg 86%
    13:00 +2°C° 1.5 mm 6 mps 718 mmHg 87%
    14:00 +2°C° 1.3 mm 5 mps 718 mmHg 88%
    15:00 +2°C° 1.3 mm 5 mps 718 mmHg 89%
    16:00 +2°C° 1.3 mm 5 mps 718 mmHg 89%
    17:00 +2°C° 2.7 mm 5 mps 717 mmHg 90%
    18:00 +1°C° 2.7 mm 5 mps 717 mmHg 91%
    19:00 +1°C° 2.7 mm 5 mps 717 mmHg 92%
    20:00 +1°C° 3.8 mm 5 mps 716 mmHg 93%
    21:00 +2°C° 3.8 mm 5 mps 715 mmHg 93%
    22:00 +2°C° 3.8 mm 5 mps 715 mmHg 94%
    23:00 +2°C° 2.8 mm 5 mps 714 mmHg 94%

    29 October, Monday

    Time Temperature Precipitation Wind Pressure Humidity
    00:00 +3°C° 2.8 mm 4 mps 714 mmHg 94%
    01:00 +3°C° 2.8 mm 4 mps 713 mmHg 95%
    02:00 +3°C° 2.1 mm 4 mps 713 mmHg 95%
    03:00 +3°C° 2.1 mm 4 mps 712 mmHg 95%
    04:00 +3°C° 2.1 mm 4 mps 712 mmHg 95%
    05:00 +3°C° 1.2 mm 3 mps 712 mmHg 95%
    06:00 +3°C° 1.2 mm 3 mps 712 mmHg 95%
    07:00 +3°C° 1.2 mm 3 mps 711 mmHg 95%
    08:00 +3°C° 0.5 mm 3 mps 711 mmHg 95%
    09:00 +4°C° 0.5 mm 2 mps 711 mmHg 95%
    10:00 +5°C° 0.5 mm 2 mps 711 mmHg 94%
    11:00 +5°C° 0.5 mm 2 mps 711 mmHg 94%
    12:00 +5°C° 0.5 mm 2 mps 711 mmHg 94%
    13:00 +5°C° 0.5 mm 2 mps 711 mmHg 94%
    14:00 +5°C° 1.3 mm 2 mps 711 mmHg 95%
    15:00 +5°C° 1.3 mm 2 mps 711 mmHg 95%
    16:00 +4°C° 1.3 mm 2 mps 710 mmHg 95%
    17:00 +4°C° 0.6 mm 2 mps 710 mmHg 95%
    18:00 +4°C° 0.6 mm 2 mps 710 mmHg 94%
    19:00 +4°C° 0.6 mm 2 mps 710 mmHg 94%
    20:00 +4°C° 0.6 mm 2 mps 710 mmHg 94%
    21:00 +4°C° 0.6 mm 2 mps 711 mmHg 94%
    22:00 +5°C° 0.6 mm 1 mps 711 mmHg 94%
    23:00 +4°C° 0 mm 2 mps 711 mmHg 93%
    Show more